Manning, SC

9:39 AM EDT on May 23, 2017 (GMT -0400)
Santee Cooper Regional

Weather History for KMNI - March, 2013

Change the Weather History Date:

Friday, March 1, 2013

  Actual Average (KCKI) Record (KCKI)
Temperature  
Mean Temperature 46 °F -  
Max Temperature 55 °F 63 °F 82 °F (2017)
Min Temperature 37 °F 35 °F 37 °F (2013)
Degree Days  
Heating Degree Days 19    
Moisture  
Dew Point 25 °F    
Average Humidity 48    
Maximum Humidity 93    
Minimum Humidity 19    
Precipitation  
Precipitation 0.00 in - - ()
Sea Level Pressure  
Sea Level Pressure 29.92 in    
Wind  
Wind Speed 2 mph (West)    
Max Wind Speed 9 mph    
Max Gust Speed -    
Visibility 10 miles    
Events      
Averages and records for this station are not official NWS values.
T = Trace of Precipitation, MM = Missing Value Source: NWS Daily Summary

Daily Weather History Graph

Daily Weather History Graph

Search for Another Location

Airport or City:

Trip Planner

Search our weather history database for the weather conditions in past years. The results will help you decide how hot, cold, wet, or windy it might be!

Date:

Astronomy

Mar. 01, 2013 Rise Set
Actual Time 6:48 AM EST 6:17 PM EST
Civil Twilight 6:23 AM EST 6:42 PM EST
Nautical Twilight 5:55 AM EST 7:11 PM EST
Astronomical Twilight 5:26 AM EST 7:40 PM EST
Moon 10:33 PM EST (3/1) 8:48 AM EST (3/1)
Length of Visible Light 12h 18m
Length of Day
11h 28m
Waning Gibbous, 83% of the Moon is Illuminated
Mar 1
Waning Gibbous
Mar 4
Last Quarter
Mar 11
New
Mar 19
First Quarter
Mar 27
Full

Hourly Weather History & Observations

Time (EST) Temp. Windchill Dew Point Humidity Pressure Visibility Wind Dir Wind Speed Gust Speed Precip Events Conditions
12:15 AM 44.6 °F 43.1 °F 30.2 °F 57% 29.90 in 10.0 mi NW 3.5 mph - N/A   Clear
12:35 AM 44.6 °F - 30.2 °F 57% 29.91 in 10.0 mi Calm Calm - N/A   Clear
12:55 AM 44.6 °F - 32.0 °F 61% 29.91 in 10.0 mi Calm Calm - N/A   Clear
1:15 AM 44.6 °F - 30.2 °F 57% 29.92 in 10.0 mi Calm Calm - N/A   Clear
1:35 AM 44.6 °F - 30.2 °F 57% 29.92 in 10.0 mi Calm Calm - N/A   Clear
1:55 AM 42.8 °F - 30.2 °F 61% 29.92 in 10.0 mi Calm Calm - N/A   Clear
2:15 AM 42.8 °F 41.1 °F 30.2 °F 61% 29.92 in 10.0 mi WNW 3.5 mph - N/A   Clear
2:35 AM 41.0 °F - 24.8 °F 53% 29.92 in 10.0 mi Calm Calm - N/A   Clear
2:55 AM 41.0 °F - 12.2 °F 31% 29.91 in 10.0 mi Calm Calm - N/A   Clear
3:15 AM 41.0 °F - 17.6 °F 39% 29.92 in 10.0 mi Calm Calm - N/A   Clear
3:35 AM 37.4 °F - 17.6 °F 45% 29.92 in 10.0 mi Calm Calm - N/A   Clear
3:55 AM 37.4 °F - 19.4 °F 48% 29.93 in 10.0 mi Calm Calm - N/A   Clear
4:15 AM 39.2 °F - 14.0 °F 36% 29.93 in 10.0 mi Calm Calm - N/A   Clear
4:35 AM 39.2 °F - 8.6 °F 28% 29.94 in 10.0 mi Calm Calm - N/A   Clear
4:55 AM 39.2 °F - 28.4 °F 65% 29.94 in 10.0 mi Calm Calm - N/A   Clear
5:15 AM 39.2 °F - 26.6 °F 61% 29.94 in 10.0 mi Calm Calm - N/A   Clear
5:35 AM 37.4 °F - 24.8 °F 60% 29.93 in 10.0 mi Calm Calm - N/A   Clear
6:15 AM 37.4 °F - 10.4 °F 33% 29.94 in 10.0 mi Calm Calm - N/A   Clear
6:35 AM 37.4 °F - 23.0 °F 56% 29.94 in 10.0 mi Calm Calm - N/A   Clear
6:55 AM 37.4 °F - 14.0 °F 38% 29.95 in 10.0 mi Calm Calm - N/A   Clear
7:15 AM 37.4 °F - 14.0 °F 38% 29.95 in 10.0 mi Calm Calm - N/A   Clear
7:35 AM 37.4 °F - 1.4 °F 22% 29.95 in 10.0 mi Calm Calm - N/A   Clear
7:55 AM 37.4 °F - 24.8 °F 60% 29.95 in 10.0 mi Calm Calm - N/A   Clear
8:15 AM 39.2 °F - 23.0 °F 52% 29.95 in 10.0 mi Calm Calm - N/A   Clear
8:35 AM 41.0 °F 39.0 °F 23.0 °F 49% 29.96 in 10.0 mi WNW 3.5 mph - N/A   Clear
8:55 AM 42.8 °F 39.3 °F 24.8 °F 49% 29.97 in 10.0 mi WNW 5.8 mph - N/A   Clear
9:35 AM 44.6 °F 41.4 °F 23.0 °F 43% 29.96 in 10.0 mi WNW 5.8 mph - N/A   Clear
9:55 AM 46.4 °F 44.3 °F 23.0 °F 40% 29.96 in 10.0 mi West 4.6 mph - N/A   Clear
10:15 AM 46.4 °F - 23.0 °F 40% 29.96 in 10.0 mi Calm Calm - N/A   Clear
10:35 AM 46.4 °F 44.3 °F 23.0 °F 40% 29.96 in 10.0 mi WNW 4.6 mph - N/A   Clear
10:55 AM 48.2 °F - 19.4 °F 32% 29.96 in 10.0 mi Calm Calm - N/A   Clear
11:15 AM 50.0 °F - 21.2 °F 32% 29.95 in 10.0 mi Calm Calm - N/A   Clear
11:35 AM 51.8 °F - 23.0 °F 33% 29.94 in 10.0 mi Calm Calm - N/A   Scattered Clouds
11:55 AM 51.8 °F - 21.2 °F 30% 29.94 in 10.0 mi WNW 8.1 mph - N/A   Scattered Clouds
12:15 PM 51.8 °F - 17.6 °F 26% 29.93 in 10.0 mi Calm Calm - N/A   Clear
12:35 PM 53.6 °F - 12.2 °F 19% 29.92 in 10.0 mi WSW 6.9 mph - N/A   Scattered Clouds
12:55 PM 53.6 °F - 21.2 °F 28% 29.92 in 10.0 mi Calm Calm - N/A   Scattered Clouds
1:15 PM 53.6 °F - 19.4 °F 26% 29.90 in 10.0 mi West 8.1 mph - N/A   Scattered Clouds
1:35 PM 53.6 °F - 19.4 °F 26% 29.89 in 10.0 mi NW 5.8 mph - N/A   Scattered Clouds
1:55 PM 53.6 °F - 21.2 °F 28% 29.89 in 10.0 mi SW 5.8 mph - N/A   Mostly Cloudy
2:15 PM 53.6 °F - 21.2 °F 28% 29.88 in 10.0 mi West 5.8 mph - N/A   Scattered Clouds
2:35 PM 53.6 °F - 21.2 °F 28% 29.88 in 10.0 mi WNW 8.1 mph - N/A   Clear
2:55 PM 53.6 °F - 21.2 °F 28% 29.87 in 10.0 mi WNW 6.9 mph - N/A   Scattered Clouds
3:15 PM 53.6 °F - 21.2 °F 28% 29.87 in 10.0 mi WSW 8.1 mph - N/A   Scattered Clouds
3:35 PM 55.4 °F - 28.4 °F 36% 29.87 in 10.0 mi WNW 4.6 mph - N/A   Scattered Clouds
3:55 PM 53.6 °F - 28.4 °F 38% 29.87 in 10.0 mi SW 5.8 mph - N/A   Scattered Clouds
4:15 PM 53.6 °F - 23.0 °F 30% 29.87 in 10.0 mi WNW 3.5 mph - N/A   Scattered Clouds
4:35 PM 53.6 °F - 19.4 °F 26% 29.87 in 10.0 mi West 4.6 mph - N/A   Scattered Clouds
4:55 PM 53.6 °F - 19.4 °F 26% 29.87 in 10.0 mi WSW 4.6 mph - N/A   Scattered Clouds
5:15 PM 53.6 °F - 21.2 °F 28% 29.88 in 10.0 mi Calm Calm - N/A   Mostly Cloudy
5:35 PM 53.6 °F - 24.8 °F 33% 29.88 in 10.0 mi Calm Calm - N/A   Overcast
5:55 PM 51.8 °F - 30.2 °F 44% 29.89 in 10.0 mi Calm Calm - N/A   Overcast
6:15 PM 51.8 °F - 30.2 °F 44% 29.90 in 10.0 mi Calm Calm - N/A   Overcast
7:15 PM 46.4 °F - 33.8 °F 62% 29.91 in 10.0 mi Calm Calm - N/A   Scattered Clouds
7:35 PM 44.6 °F - 33.8 °F 66% 29.90 in 10.0 mi Calm Calm - N/A   Scattered Clouds
7:55 PM 44.6 °F - 35.6 °F 71% 29.91 in 10.0 mi Calm Calm - N/A   Clear
8:15 PM 42.8 °F - 28.4 °F 57% 29.91 in 10.0 mi Calm Calm - N/A   Scattered Clouds
8:35 PM 42.8 °F - 33.8 °F 70% 29.91 in 10.0 mi Calm Calm - N/A   Scattered Clouds
8:55 PM 41.0 °F - 35.6 °F 81% 29.92 in 10.0 mi Calm Calm - N/A   Clear
9:15 PM 41.0 °F - 37.4 °F 87% 29.92 in 10.0 mi Calm Calm - N/A   Clear
9:35 PM 39.2 °F - 37.4 °F 93% 29.92 in 10.0 mi Calm Calm - N/A   Clear
10:15 PM 41.0 °F - 37.4 °F 87% 29.93 in 10.0 mi Calm Calm - N/A   Overcast
10:35 PM 41.0 °F - 39.2 °F 93% 29.93 in 10.0 mi Calm Calm - N/A   Overcast
10:55 PM 42.8 °F 37.5 °F 39.2 °F 87% 29.93 in 10.0 mi North 9.2 mph - N/A   Overcast
11:15 PM 42.8 °F - 37.4 °F 81% 29.92 in 10.0 mi Calm Calm - N/A   Overcast
11:55 PM 41.0 °F - 37.4 °F 87% 29.92 in 10.0 mi Calm Calm - N/A   Scattered Clouds